SCP
0 0 1 1 1 1 1 1 1 1 0 0 0 0 0 0 0 0 0 0 0 0 0 0 0 0 0 0 0 0 0 0 0 0 0 0 0 0 0 0 0 0 0
0 0 1 1 1 1 1 1 1 1 0 0 0 0 0 0 0 0 0 0 0 0 0 0 0 0 0 0 0 0 0 0 0 0 0 0 0 0 0 0 0 0 0
0 0 1 1 1 1 1 1 1 1 0 0 0 0 0 0 0 0 0 0 0 0 0 0 0 0 0 0 0 0 0 0 0 0 0 0 0 0 0 0 0 0 0
0 0 0 1 1 1 1 1 1 1 0 0 0 0 0 0 0 0 0 0 0 0 0 0 0 0 0 0 0 0 0 0 0 0 0 0 0 0 0 0 0 0 0
0 0 0 1 1 1 1 1 1 1 1 0 0 0 0 0 0 0 0 0 0 0 0 0 0 0 0 0 0 0 0 0 0 0 0 0 0 0 0 0 0 0 0
0 0 1 1 1 1 1 1 1 1 1 0 0 0 0 0 0 0 0 0 0 0 0 0 0 0 0 0 0 0 0 0 0 0 0 0 0 0 0 0 0 0 0
1 1 1 1 1 1 1 1 1 1 1 1 0 0 0 0 0 0 0 0 0 0 0 0 0 0 0 0 0 0 0 0 0 0 0 0 0 0 0 0 0 0 0
1 1 1 1 1 1 1 1 1 1 1 1 1 0 0 0 0 0 0 0 0 0 0 0 0 0 0 0 0 0 0 0 0 0 0 0 0 0 0 0 0 0 0
1 1 1 1 1 1 1 1 1 1 1 1 1 1 0 0 0 0 0 0 0 0 0 0 0 0 0 0 0 0 0 0 0 0 0 0 0 0 0 0 0 0 0
1 1 1 1 1 1 1 0 0 0 0 0 1 1 0 0 0 0 0 0 0 0 0 0 0 0 0 0 0 0 0 0 0 0 0 0 0 0 0 0 0 0 0
1 1 1 1 1 1 0 0 0 0 0 0 0 0 0 0 0 0 0 0 0 0 0 0 0 0 0 0 0 0 0 0 0 0 0 0 0 0 0 0 0 0 0
1 1 1 0 0 1 0 0 0 0 0 0 0 0 0 0 0 0 0 0 0 0 0 0 0 0 0 0 0 0 0 0 0 0 0 0 0 0 0 0 0 0 0
1 1 1 1 1 0 1 0 0 0 0 0 0 0 0 0 0 0 0 0 0 0 0 0 0 0 0 0 0 0 0 0 0 0 0 0 0 0 0 0 0 0 0
1 1 1 1 1 1 1 1 0 0 0 0 0 0 0 0 0 0 0 0 0 0 0 0 0 0 0 0 0 0 0 0 0 0 0 0 0 0 0 0 0 0 0
0 1 1 1 1 1 1 1 1 1 0 0 0 0 0 0 0 0 0 0 0 0 0 0 0 0 0 0 0 0 0 0 0 0 0 0 0 0 0 0 0 0 0
1 0 0 1 1 1 1 1 1 1 1 0 0 0 0 0 0 0 0 0 0 0 0 0 0 0 0 0 0 0 0 0 0 0 0 0 0 0 0 0 0 0 0
1 1 1 1 1 1 1 1 1 1 1 1 0 0 0 0 0 0 0 0 0 0 0 0 0 0 0 0 0 0 0 0 0 0 0 0 0 0 0 0 0 0 0
1 1 1 1 1 1 1 1 1 1 1 1 1 0 0 0 0 0 0 0 0 0 0 0 0 0 0 0 0 0 0 0 0 0 0 0 0 0 0 0 0 0 0
1 1 1 1 1 1 1 1 1 2 1 1 1 0 0 0 0 0 0 0 0 0 1 1 0 0 0 0 0 0 0 0 0 0 0 0 0 0 0 0 0 0 0
1 1 1 1 1 1 1 1 2 2 2 1 1 1 0 0 0 0 0 0 0 0 1 1 1 0 0 0 0 0 0 0 0 0 0 0 0 0 0 0 0 0 0
1 1 1 1 1 1 1 2 2 2 2 2 1 1 1 0 0 0 0 0 0 0 0 0 1 1 0 0 0 0 0 0 0 0 0 0 0 0 0 0 0 0 0
0 0 1 1 1 1 1 2 2 2 2 2 2 1 1 1 0 0 0 0 0 0 0 0 0 0 1 0 0 0 0 0 0 0 0 0 0 0 0 0 0 0 0
0 0 1 1 1 1 1 2 2 2 2 2 1 1 1 1 1 0 0 0 0 0 0 0 0 0 0 0 0 0 0 0 0 0 0 0 0 0 0 0 0 0 0
0 0 1 1 1 1 1 2 2 2 2 2 1 1 0 1 1 1 1 1 1 1 1 0 0 0 0 0 0 0 0 0 0 0 0 0 0 0 0 0 0 0 0
0 1 1 1 1 1 1 1 2 2 2 1 1 0 0 0 0 0 1 1 1 1 1 1 1 0 0 0 0 0 0 0 0 0 0 0 0 0 0 0 0 0 0
1 1 1 1 1 1 1 1 1 2 1 1 0 0 0 0 0 0 0 1 1 1 1 1 0 0 0 0 0 0 0 0 0 0 0 0 0 0 0 0 0 0 0
Wind_Speed
3 4 8 9 10 10 10 10 10 10 10 11 11 11 11 11 11 11 10 10 10 11 11 11 11 11 11 12 12 12 11 11 10 10 10 10 11 11 11 10 9 6 10
5 5 8 9 10 10 10 10 9 10 10 10 11 11 11 11 11 10 10 10 10 10 10 11 11 11 11 11 10 10 10 9 9 9 9 8 9 9 9 9 8 5 9
6 6 7 8 9 10 9 9 9 9 9 10 10 10 10 10 10 10 9 10 9 10 10 10 10 10 9 9 9 9 8 8 8 8 7 4 4 7 7 7 7 7 7
7 5 6 8 9 10 9 9 9 9 9 9 10 10 10 9 9 9 9 9 9 9 9 9 9 9 8 8 8 7 7 7 7 7 4 3 2 4 5 5 5 5 5
6 4 5 8 9 10 9 8 8 8 8 8 9 9 9 9 9 9 8 8 8 8 8 8 8 7 7 7 6 6 6 7 7 6 3 3 2 3 4 5 5 5 4
5 5 5 8 9 9 8 8 7 8 8 8 8 8 8 8 8 8 8 7 7 7 7 6 6 6 5 5 5 5 6 6 5 3 2 2 2 2 3 3 3 3 2
5 4 5 7 7 8 8 7 7 7 8 8 7 7 7 7 7 7 6 6 5 6 5 5 4 4 4 4 4 4 5 4 3 1 1 2 1 1 1 1 1 1 1
6 5 4 6 6 6 6 6 6 6 6 7 6 6 6 6 6 5 5 4 4 4 4 4 4 3 2 2 3 3 3 2 2 1 1 1 3 3 2 2 2 3 3
5 5 4 3 4 5 4 4 5 5 4 5 6 6 5 5 5 4 3 3 2 2 3 3 2 2 2 1 1 1 2 1 1 1 1 1 4 4 4 4 4 4 4
4 4 3 3 3 3 2 4 4 4 4 4 4 5 4 4 4 3 2 2 1 2 2 2 1 0 1 2 2 2 1 1 0 1 1 3 5 6 6 6 6 6 6
3 3 2 3 2 2 2 2 3 3 3 3 3 4 3 2 2 1 1 2 1 1 1 1 1 1 1 2 3 3 2 1 1 2 2 5 7 7 8 8 7 7 7
3 2 2 2 2 2 2 2 2 2 2 2 1 2 1 1 1 1 1 2 1 1 1 2 2 1 1 1 3 3 1 2 2 2 3 7 8 9 9 9 9 8 8
2 2 1 2 2 2 1 2 1 1 1 1 2 1 1 1 1 1 0 1 1 1 1 1 1 1 1 1 2 2 2 2 2 3 4 8 10 10 10 10 10 10 10
1 1 0 1 1 1 1 1 2 1 1 1 2 2 1 1 1 1 1 1 1 1 1 1 1 2 2 3 3 3 3 3 3 3 4 9 10 11 11 11 11 10 10
1 1 1 1 1 1 1 1 1 2 2 2 1 2 2 2 2 2 2 2 2 2 2 2 2 2 3 3 3 4 4 4 5 4 4 8 10 11 12 12 12 11 10
1 1 1 1 2 1 2 1 1 2 2 2 1 1 2 2 2 3 3 2 3 3 3 3 3 3 3 3 4 4 5 5 5 5 4 5 8 10 12 12 12 11 11
2 2 1 1 1 1 2 2 1 1 1 1 1 1 1 1 2 2 3 3 3 3 3 3 3 3 3 3 4 5 4 5 5 5 5 4 4 7 10 11 11 11 11
2 2 1 1 1 1 1 1 0 0 1 0 0 0 1 1 1 1 2 3 3 2 2 3 3 2 3 3 4 4 4 4 5 6 5 4 4 4 6 9 9 9 10
3 2 2 2 2 1 1 0 0 1 0 0 0 1 1 1 1 1 1 2 2 2 2 2 2 2 3 4 4 4 4 4 5 5 5 5 5 4 3 4 6 7 9
5 4 4 3 3 2 2 2 1 1 1 1 1 2 2 1 1 1 1 2 1 2 2 2 3 3 3 3 4 5 5 5 4 4 5 4 4 4 3 3 3 4 7
6 6 5 5 4 3 2 1 1 1 2 2 2 3 2 2 2 1 2 2 2 2 2 2 2 3 3 2 2 4 4 5 5 4 3 3 4 3 3 3 3 3 3
6 5 5 5 4 3 2 1 1 1 1 2 3 3 4 3 3 2 2 2 2 2 2 3 2 2 2 1 2 3 4 3 2 3 3 3 3 2 3 3 3 3 3
6 5 4 5 5 4 3 2 2 2 1 2 4 3 5 4 4 3 3 2 2 1 2 2 2 3 3 3 2 2 2 4 4 2 2 2 2 2 3 3 3 3 4
5 4 4 4 4 4 3 4 4 2 2 2 2 3 4 5 5 5 5 4 3 2 2 3 2 3 3 3 3 3 3 3 3 4 3 2 2 3 4 3 3 4 4
5 5 4 4 5 5 4 3 3 2 2 2 2 3 4 4 5 5 5 5 4 3 3 3 2 3 3 3 3 3 3 3 3 4 5 4 3 2 3 4 3 3 3
6 5 5 5 6 5 5 4 3 3 3 4 4 4 4 4 4 6 5 5 5 5 5 4 3 3 3 3 3 3 3 3 3 4 6 6 6 4 3 3 3 3 3
Wind_Direction
167 167 162 149 142 137 133 128 124 121 117 116 117 119 119 117 114 111 110 107 106 104 102 98 94 90 89 87 84 81 79 75 73 75 78 83 85 84 81 76 71 62 73
145 155 154 148 143 137 135 129 126 126 122 119 119 118 117 115 115 112 112 111 108 107 104 102 97 92 89 87 85 83 79 74 73 71 67 67 78 82 82 79 77 73 75
132 144 146 145 142 137 132 133 130 127 123 122 119 117 117 116 116 115 112 111 110 109 107 104 100 96 93 89 87 83 78 76 74 70 59 40 54 80 82 78 74 71 73
132 134 141 139 139 137 134 134 137 133 127 123 118 117 118 117 117 114 112 111 113 109 106 104 102 99 96 92 89 83 79 79 75 67 49 31 22 76 80 76 73 71 70
122 122 134 135 139 139 137 136 140 137 134 131 124 119 118 114 111 113 111 111 111 111 108 106 105 102 99 94 87 83 83 82 74 60 39 25 11 67 74 71 71 70 68
114 114 130 135 141 142 142 142 141 142 137 135 128 123 121 117 113 108 105 104 107 107 106 105 107 105 101 93 84 82 87 82 68 53 29 9 353 61 74 70 69 63 54
119 113 129 134 139 143 147 148 142 141 140 137 133 129 126 122 117 112 111 107 108 104 102 104 109 109 101 91 83 80 85 81 73 53 9 346 324 359 33 27 23 10 346
125 118 124 135 137 139 142 141 142 138 144 145 142 137 135 131 127 123 118 115 113 116 112 100 91 92 97 96 87 78 76 73 65 24 338 317 298 297 292 297 299 296 294
109 112 110 122 133 139 137 134 135 135 136 147 145 136 134 134 129 123 122 126 129 129 133 118 95 78 58 45 55 61 51 54 72 297 291 287 289 287 284 284 289 289 287
99 109 115 113 114 121 128 137 138 139 141 134 138 134 132 132 131 127 130 138 153 160 158 148 125 63 358 347 348 351 340 7 289 274 272 273 281 279 279 282 284 284 281
113 110 119 123 121 121 128 138 141 142 138 130 133 139 132 122 124 134 167 177 175 177 179 198 242 293 333 329 321 316 329 311 273 260 261 269 274 274 275 279 280 280 279
156 145 126 147 150 149 153 137 141 137 132 128 127 142 142 142 153 157 208 209 216 226 243 264 280 304 326 326 318 319 301 288 281 264 259 267 273 276 278 280 280 277 276
172 163 172 168 158 166 168 159 157 148 142 153 157 164 163 155 161 172 203 250 255 255 261 283 294 300 288 280 287 294 285 280 268 270 269 272 274 276 279 279 278 277 276
132 175 164 180 172 186 172 170 170 168 178 191 196 180 170 185 204 208 211 226 225 227 231 244 254 269 271 270 270 278 286 276 267 265 267 272 277 278 277 277 277 276 276
204 235 211 175 170 178 176 181 171 182 196 206 210 203 190 198 221 220 221 221 222 219 223 236 245 256 264 269 268 269 274 279 274 265 268 269 271 275 276 274 274 274 276
318 283 252 214 208 185 187 195 197 193 194 187 199 219 210 211 222 231 228 228 230 225 225 226 236 246 256 262 269 267 266 269 274 267 261 267 267 269 273 276 277 275 276
353 1 340 269 252 218 211 208 211 208 199 207 233 237 232 223 231 235 230 232 236 231 231 235 242 244 256 263 268 268 267 267 266 269 264 259 261 264 267 272 274 277 278
16 17 354 359 4 299 257 232 167 126 166 186 311 305 287 270 261 245 260 253 250 240 235 239 244 251 256 260 266 269 265 266 268 265 265 259 253 258 264 269 271 275 279
22 20 11 9 9 353 3 38 70 75 85 50 25 346 311 306 295 264 264 288 286 256 244 248 250 245 257 263 266 268 264 260 262 263 262 261 255 253 253 266 268 272 277
23 28 28 23 17 17 28 49 51 51 29 26 20 358 353 334 338 302 283 306 320 314 295 280 267 259 257 270 275 273 266 261 258 257 259 265 260 253 253 260 264 271 273
26 28 24 24 16 31 27 11 23 14 8 16 12 358 353 353 346 331 313 322 331 303 296 301 294 284 276 280 286 289 276 260 256 258 257 259 262 259 259 260 259 263 273
24 19 20 19 21 27 20 353 28 50 47 37 22 11 6 1 348 335 321 304 305 299 315 324 322 307 291 285 275 293 299 305 286 259 255 258 270 274 266 269 267 265 269
19 12 10 14 20 21 24 33 36 50 42 31 11 5 4 4 4 354 333 309 301 283 291 299 302 285 289 286 259 258 275 274 305 284 264 260 275 289 278 270 267 270 270
4 4 13 15 23 22 36 44 43 36 19 3 5 359 1 8 8 4 354 336 322 308 297 291 292 292 289 289 288 266 262 272 277 296 292 278 283 280 283 284 277 274 273
4 6 12 19 26 23 32 49 53 28 4 11 21 11 360 358 5 4 355 345 334 327 319 308 297 289 281 283 284 290 288 284 266 269 285 296 296 272 274 278 276 277 279
12 11 15 24 23 18 24 30 39 26 14 17 10 4 358 353 355 2 352 347 343 339 331 321 312 306 297 293 290 290 287 285 287 273 276 290 289 282 274 267 271 273 272